This demonstration page uses our WeatherBlox Daily Observations layout. Learn more.

Left ArrowRight Arrow

Hourly Observations for April 8, 2022

Temp ( °F °C ) Dew Point ( °F °C ) Humidity (%) Winds ( mph kmh ) Pressure ( in mb ) Visibility ( mi km ) Precip ( " mm )
12:52 am 00:52 Mostly Cloudy 38 3.3 28 -2.2 68 68 NW 12 19 29.90 1012 10 16 0.00 0.00
1:30 am 01:30 Cloudy 38 3.3 29 -1.7 70 70 W 14 22 29.93 1013 10 16 0.00 0.00
1:52 am 01:52 Mostly Cloudy 37 2.8 30 -1.1 76 76 WNW 17 28 29.89 1012 10 16 0.00 0.00
2:05 am 02:05 Mostly Cloudy 37 2.8 29 -1.7 73 73 NW 17 28 29.93 1013 10 16 0.00 0.00
2:52 am 02:52 Cloudy 37 2.8 29 -1.7 73 73 WNW 14 22 29.88 1012 10 16 0.00 0.00
3:11 am 03:11 Cloudy 37 2.8 28 -2.2 70 70 WNW 12 19 29.92 1013 10 16 0.00 0.00
3:47 am 03:47 Cloudy 36 2 28 -2 75 75 NW 16 26 29.92 1013 10 16 0.00 0.00
3:52 am 03:52 Cloudy 36 2.2 29 -1.7 76 76 WNW 14 22 29.88 1012 10 16 0.00 0.00
4:52 am 04:52 Cloudy 35 1.7 30 -1.1 82 82 NW 15 24 29.88 1012 10 16 0.00 0.00
5:52 am 05:52 Cloudy with Light Rain 35 1.7 30 -1.1 82 82 NW 13 20 29.89 1012 10 16 0.00 0.00
6:52 am 06:52 Cloudy 35 1.7 29 -1.7 78 78 NW 15 24 29.90 1013 10 16 0.00 0.00
7:13 am 07:13 Cloudy with Light Snow 35 1.7 29 -1.7 78 78 NW 15 24 29.95 1014 8 13 0.00 0.00
7:31 am 07:31 Cloudy 35 1.7 30 -1.1 82 82 NW 17 28 29.95 1014 10 16 0.00 0.00
7:52 am 07:52 Cloudy 35 1.7 28 -2.2 76 76 NW 20 31 29.93 1013 10 16 0.00 0.00
8:52 am 08:52 Cloudy 36 2.2 24 -4.4 62 62 NNW 26 43 29.95 1014 10 16 0.00 0.00
9:52 am 09:52 Cloudy 36 2.2 24 -4.4 62 62 NW 16 26 29.98 1015 10 16 0.00 0.00
10:52 am 10:52 Cloudy 37 2.8 24 -4.4 59 59 NW 16 26 30.00 1016 10 16 0.00 0.00
11:52 am 11:52 Cloudy 37 2.8 26 -3.3 65 65 WNW 18 30 30.01 1016 10 16 0.00 0.00
12:52 pm 12:52 Cloudy 37 2.8 27 -2.8 67 67 WNW 15 24 30.02 1017 10 16 0.00 0.00
1:06 pm 13:06 Cloudy 38 3.3 27 -2.8 65 65 NW 15 24 30.05 1017 10 16 0.00 0.00
1:14 pm 13:14 Cloudy 37 2.8 27 -2.8 67 67 NW 22 35 30.05 1018 10 16 0.00 0.00
1:52 pm 13:52 Cloudy 38 3.3 27 -2.8 65 65 NW 20 31 30.03 1017 10 16 0.00 0.00
2:52 pm 14:52 Cloudy 38 3.3 27 -2.8 65 65 WNW 13 20 30.03 1017 10 16 0.00 0.00
3:09 pm 15:09 Cloudy 40 4.4 27 -2.8 60 60 WNW 12 19 30.05 1018 10 16 0.00 0.00
3:52 pm 15:52 Cloudy 39 3.9 27 -2.8 62 62 WNW 9 15 30.02 1017 10 16 0.00 0.00
4:52 pm 16:52 Cloudy 41 5 28 -2.2 60 60 WNW 9 15 30.01 1016 10 16 0.00 0.00
5:52 pm 17:52 Cloudy 42 5.6 28 -2.2 58 58 WNW 10 17 30.01 1016 10 16 0.00 0.00
6:52 pm 18:52 Cloudy 44 6.7 28 -2.2 53 53 WNW 10 17 30.00 1016 10 16 0.00 0.00
7:52 pm 19:52 Mostly Cloudy 41 5 27 -2.8 57 57 Calm 30.00 1016 10 16 0.00 0.00
8:52 pm 20:52 Clear 33 0.6 27 -2.8 78 78 S 3 6 30.01 1016 10 16 0.00 0.00
9:52 pm 21:52 Clear 31 -0.6 26 -3.3 82 82 SSE 3 6 30.02 1017 10 16 0.00 0.00
10:52 pm 22:52 Clear 32 0 26 -3.3 79 79 Calm 30.02 1017 10 16 0.00 0.00
11:52 pm 23:52 Clear 30 -1.1 25 -3.9 82 82 SSW 5 7 30.01 1016 10 16 0.00 0.00

Powered by AerisWeather